Time,TemperatureF,DewpointF,PressureIn,WindDirection,WindDirectionDegrees,WindSpeedMPH,WindSpeedGustMPH,Humidity,HourlyPrecipIn,Conditions,Clouds,dailyrainin,SoftwareType,DateUTC
2017-04-28 00:04:00,70.0,67.0,29.90,North,0,0.0,-999.0,91,0.00,,,0.00,,2017-04-28 04:04:00,
2017-04-28 00:10:00,70.3,67.0,29.90,North,0,0.0,-999.0,91,0.00,,,0.00,,2017-04-28 04:10:00,
2017-04-28 00:15:00,70.5,67.0,29.91,North,0,0.0,-999.0,91,0.00,,,0.00,,2017-04-28 04:15:00,
2017-04-28 00:21:00,70.5,67.0,29.91,NNW,338,0.0,-999.0,91,0.00,,,0.00,,2017-04-28 04:21:00,
2017-04-28 00:27:00,70.5,67.0,29.91,NNE,23,0.0,-999.0,91,0.00,,,0.00,,2017-04-28 04:27:00,
2017-04-28 00:32:00,70.5,67.0,29.91,North,0,0.0,-999.0,91,0.00,,,0.00,,2017-04-28 04:32:00,
2017-04-28 00:38:00,70.3,67.0,29.91,WNW,293,0.0,-999.0,91,0.00,,,0.00,,2017-04-28 04:38:00,
2017-04-28 00:43:00,70.3,67.0,29.91,NNW,338,0.0,-999.0,91,0.00,,,0.00,,2017-04-28 04:43:00,
2017-04-28 00:49:00,70.1,68.0,29.90,NNW,338,0.0,-999.0,93,0.00,,,0.00,,2017-04-28 04:49:00,
2017-04-28 00:54:00,70.1,68.0,29.91,NE,45,0.0,-999.0,93,0.00,,,0.00,,2017-04-28 04:54:00,
2017-04-28 01:00:00,70.0,68.0,29.91,NNE,23,0.0,-999.0,93,0.00,,,0.00,,2017-04-28 05:00:00,
2017-04-28 01:05:00,69.8,67.0,29.91,NNE,23,0.0,-999.0,93,0.00,,,0.00,,2017-04-28 05:05:00,
2017-04-28 01:11:00,69.6,67.0,29.91,NNE,23,0.0,-999.0,93,0.00,,,0.00,,2017-04-28 05:11:00,
2017-04-28 01:17:00,69.4,67.0,29.91,SSE,158,0.0,-999.0,95,0.00,,,0.00,,2017-04-28 05:17:00,
2017-04-28 01:22:00,69.4,67.0,29.91,SSE,158,0.0,-999.0,95,0.00,,,0.00,,2017-04-28 05:22:00,
2017-04-28 01:28:00,69.3,67.0,29.91,SSW,203,0.0,-999.0,95,0.00,,,0.00,,2017-04-28 05:28:00,
2017-04-28 01:33:00,69.3,67.0,29.91,SSW,203,0.0,-999.0,95,0.00,,,0.00,,2017-04-28 05:33:00,
2017-04-28 01:39:00,69.0,67.0,29.91,SSW,203,0.0,-999.0,95,0.00,,,0.00,,2017-04-28 05:39:00,
2017-04-28 01:44:00,69.0,67.0,29.91,South,180,0.0,-999.0,95,0.00,,,0.00,,2017-04-28 05:44:00,
2017-04-28 01:50:00,68.9,67.0,29.91,South,180,0.0,-999.0,96,0.00,,,0.00,,2017-04-28 05:50:00,
2017-04-28 01:55:00,68.6,67.0,29.91,WNW,293,0.0,-999.0,96,0.00,,,0.00,,2017-04-28 05:55:00,
2017-04-28 02:01:00,68.4,67.0,29.91,SE,135,0.0,-999.0,96,0.00,,,0.00,,2017-04-28 06:01:00,
2017-04-28 02:06:00,68.4,67.0,29.91,South,180,0.0,-999.0,96,0.00,,,0.00,,2017-04-28 06:06:00,
2017-04-28 02:12:00,68.4,67.0,29.91,SW,225,0.0,-999.0,96,0.00,,,0.00,,2017-04-28 06:12:00,
2017-04-28 02:18:00,68.4,67.0,29.91,NNE,23,0.0,-999.0,96,0.00,,,0.00,,2017-04-28 06:18:00,
2017-04-28 02:23:00,68.4,67.0,29.91,North,0,0.0,-999.0,96,0.00,,,0.00,,2017-04-28 06:23:00,
2017-04-28 02:29:00,68.4,67.0,29.91,NNE,23,0.0,-999.0,96,0.00,,,0.00,,2017-04-28 06:29:00,
2017-04-28 02:34:00,68.4,67.0,29.91,NNE,23,0.0,-999.0,96,0.00,,,0.00,,2017-04-28 06:34:00,
2017-04-28 02:39:00,68.4,67.0,29.91,North,0,0.0,-999.0,96,0.00,,,0.00,,2017-04-28 06:39:00,
2017-04-28 02:45:00,68.4,67.0,29.91,NE,45,0.0,-999.0,96,0.00,,,0.00,,2017-04-28 06:45:00,
2017-04-28 02:50:00,68.4,67.0,29.91,NE,45,0.0,-999.0,96,0.00,,,0.00,,2017-04-28 06:50:00,
2017-04-28 02:56:00,68.4,67.0,29.91,NE,45,0.0,-999.0,96,0.00,,,0.00,,2017-04-28 06:56:00,
2017-04-28 03:01:00,68.4,67.0,29.91,SSE,158,0.0,-999.0,96,0.00,,,0.00,,2017-04-28 07:01:00,
2017-04-28 03:07:00,68.4,67.0,29.91,SSE,158,0.0,-999.0,98,0.00,,,0.00,,2017-04-28 07:07:00,
2017-04-28 03:12:00,68.1,67.0,29.92,SSE,158,0.0,-999.0,98,0.00,,,0.00,,2017-04-28 07:12:00,
2017-04-28 03:18:00,68.1,67.0,29.92,SSE,158,0.0,-999.0,98,0.00,,,0.00,,2017-04-28 07:18:00,
2017-04-28 03:24:00,68.0,67.0,29.92,NNE,23,0.0,-999.0,98,0.00,,,0.00,,2017-04-28 07:24:00,
2017-04-28 03:25:00,68.0,67.0,29.92,NNW,338,0.0,-999.0,98,0.00,,,0.00,,2017-04-28 07:25:00,
2017-04-28 03:31:00,68.0,67.0,29.92,NNE,23,0.0,-999.0,98,0.00,,,0.00,,2017-04-28 07:31:00,
2017-04-28 03:36:00,68.0,67.0,29.92,NNW,338,0.0,-999.0,98,0.00,,,0.00,,2017-04-28 07:36:00,
2017-04-28 03:42:00,68.0,67.0,29.92,North,0,0.0,-999.0,98,0.00,,,0.00,,2017-04-28 07:42:00,
2017-04-28 03:48:00,67.8,67.0,29.93,NW,315,0.0,-999.0,98,0.00,,,0.00,,2017-04-28 07:48:00,
2017-04-28 03:53:00,67.8,67.0,29.93,NE,45,0.0,-999.0,98,0.00,,,0.00,,2017-04-28 07:53:00,
2017-04-28 03:59:00,67.6,67.0,29.93,SSE,158,0.0,-999.0,98,0.00,,,0.00,,2017-04-28 07:59:00,
2017-04-28 04:04:00,67.6,67.0,29.93,South,180,0.0,-999.0,98,0.00,,,0.00,,2017-04-28 08:04:00,
2017-04-28 04:10:00,67.5,67.0,29.93,South,180,0.0,-999.0,98,0.00,,,0.00,,2017-04-28 08:10:00,
2017-04-28 04:15:00,67.3,67.0,29.93,South,180,0.0,-999.0,98,0.00,,,0.00,,2017-04-28 08:15:00,
2017-04-28 04:21:00,67.1,66.0,29.93,South,180,0.0,-999.0,98,0.00,,,0.00,,2017-04-28 08:21:00,
2017-04-28 04:26:00,66.9,66.0,29.93,WNW,293,0.0,-999.0,98,0.00,,,0.00,,2017-04-28 08:26:00,
2017-04-28 04:32:00,66.9,66.0,29.93,NNW,338,0.0,-999.0,98,0.00,,,0.00,,2017-04-28 08:32:00,
2017-04-28 04:38:00,66.9,66.0,29.94,ESE,113,0.0,-999.0,98,0.00,,,0.00,,2017-04-28 08:38:00,
2017-04-28 04:43:00,66.6,66.0,29.94,SE,135,0.0,-999.0,98,0.00,,,0.00,,2017-04-28 08:43:00,
2017-04-28 04:49:00,66.6,66.0,29.94,SE,135,0.0,-999.0,98,0.00,,,0.00,,2017-04-28 08:49:00,
2017-04-28 04:54:00,66.5,66.0,29.94,SE,135,0.0,-999.0,98,0.00,,,0.00,,2017-04-28 08:54:00,
2017-04-28 05:00:00,66.5,66.0,29.94,NE,45,0.0,-999.0,98,0.00,,,0.00,,2017-04-28 09:00:00,
2017-04-28 05:05:00,66.4,66.0,29.94,SSE,158,0.0,-999.0,98,0.00,,,0.00,,2017-04-28 09:05:00,
2017-04-28 05:11:00,66.4,66.0,29.95,SSE,158,0.0,-999.0,98,0.00,,,0.00,,2017-04-28 09:11:00,
2017-04-28 05:16:00,66.1,65.0,29.95,NNW,338,0.0,-999.0,98,0.00,,,0.00,,2017-04-28 09:16:00,
2017-04-28 05:22:00,66.1,65.0,29.95,NNE,23,0.0,-999.0,98,0.00,,,0.00,,2017-04-28 09:22:00,
2017-04-28 05:27:00,66.4,66.0,29.95,NNE,23,0.0,-999.0,98,0.00,,,0.00,,2017-04-28 09:27:00,
2017-04-28 05:33:00,66.4,66.0,29.95,NE,45,0.0,-999.0,98,0.00,,,0.00,,2017-04-28 09:33:00,
2017-04-28 05:39:00,66.4,66.0,29.95,SE,135,0.0,-999.0,98,0.00,,,0.00,,2017-04-28 09:39:00,
2017-04-28 05:44:00,66.4,66.0,29.95,SE,135,0.0,-999.0,98,0.00,,,0.00,,2017-04-28 09:44:00,
2017-04-28 05:50:00,66.4,66.0,29.96,SE,135,0.0,-999.0,98,0.00,,,0.00,,2017-04-28 09:50:00,
2017-04-28 05:55:00,66.4,66.0,29.96,SE,135,0.0,-999.0,98,0.00,,,0.00,,2017-04-28 09:55:00,
2017-04-28 05:58:00,66.4,66.0,29.96,SE,135,0.0,-999.0,98,0.00,,,0.00,,2017-04-28 09:58:00,
2017-04-28 06:03:00,66.4,66.0,29.96,SE,135,0.0,-999.0,98,0.00,,,0.00,,2017-04-28 10:03:00,
2017-04-28 06:09:00,66.4,66.0,29.96,SE,135,0.0,-999.0,98,0.00,,,0.00,,2017-04-28 10:09:00,
2017-04-28 06:14:00,66.4,66.0,29.96,SE,135,0.0,-999.0,98,0.00,,,0.00,,2017-04-28 10:14:00,
2017-04-28 06:20:00,66.1,65.0,29.96,SE,135,0.0,-999.0,98,0.00,,,0.00,,2017-04-28 10:20:00,
2017-04-28 06:25:00,66.1,65.0,29.97,SE,135,0.0,-999.0,98,0.00,,,0.00,,2017-04-28 10:25:00,
2017-04-28 06:31:00,66.1,65.0,29.97,SE,135,0.0,-999.0,98,0.00,,,0.00,,2017-04-28 10:31:00,
2017-04-28 06:37:00,66.1,65.0,29.97,SE,135,0.0,-999.0,98,0.00,,,0.00,,2017-04-28 10:37:00,
2017-04-28 06:42:00,66.1,65.0,29.97,SE,135,0.0,-999.0,98,0.00,,,0.00,,2017-04-28 10:42:00,
2017-04-28 06:48:00,66.1,65.0,29.98,SE,135,0.0,-999.0,98,0.00,,,0.00,,2017-04-28 10:48:00,
2017-04-28 06:53:00,66.1,65.0,29.98,WSW,248,0.0,-999.0,98,0.00,,,0.00,,2017-04-28 10:53:00,
2017-04-28 06:59:00,66.4,66.0,29.98,WSW,248,0.0,-999.0,98,0.00,,,0.00,,2017-04-28 10:59:00,
2017-04-28 07:04:00,66.5,66.0,29.98,SSE,158,0.0,-999.0,98,0.00,,,0.00,,2017-04-28 11:04:00,
2017-04-28 07:10:00,66.6,66.0,29.98,NNW,338,0.0,-999.0,98,0.00,,,0.00,,2017-04-28 11:10:00,
2017-04-28 07:15:00,66.9,66.0,29.99,SW,225,0.0,-999.0,98,0.00,,,0.00,,2017-04-28 11:15:00,
2017-04-28 07:21:00,67.1,66.0,30.00,NNW,338,0.0,-999.0,98,0.00,,,0.00,,2017-04-28 11:21:00,
2017-04-28 07:27:00,67.5,66.0,30.00,NNW,338,0.0,-999.0,98,0.00,,,0.00,,2017-04-28 11:27:00,
2017-04-28 07:32:00,67.6,67.0,30.00,NNW,338,0.0,-999.0,98,0.00,,,0.00,,2017-04-28 11:32:00,
2017-04-28 07:38:00,68.0,67.0,30.00,NNW,338,0.0,-999.0,96,0.00,,,0.00,,2017-04-28 11:38:00,
2017-04-28 07:43:00,68.1,67.0,30.00,NNW,338,0.0,-999.0,96,0.00,,,0.00,,2017-04-28 11:43:00,
2017-04-28 07:49:00,68.4,67.0,30.00,NW,315,0.0,-999.0,95,0.00,,,0.00,,2017-04-28 11:49:00,
2017-04-28 07:54:00,69.4,67.0,30.00,West,270,0.0,-999.0,93,0.00,,,0.00,,2017-04-28 11:54:00,
2017-04-28 08:00:00,70.1,67.0,30.01,NNE,23,0.0,-999.0,91,0.00,,,0.00,,2017-04-28 12:00:00,
2017-04-28 08:04:00,70.1,67.0,30.01,SSW,203,0.0,-999.0,91,0.00,,,0.00,,2017-04-28 12:04:00,
2017-04-28 08:09:00,70.6,67.0,30.01,SW,225,0.0,-999.0,90,0.00,,,0.00,,2017-04-28 12:09:00,
2017-04-28 08:15:00,70.6,67.0,30.02,NNW,338,0.0,-999.0,90,0.00,,,0.00,,2017-04-28 12:15:00,
2017-04-28 08:20:00,70.5,67.0,30.02,North,0,0.0,-999.0,90,0.00,,,0.00,,2017-04-28 12:20:00,
2017-04-28 08:26:00,70.1,67.0,30.03,NNW,338,0.0,-999.0,91,0.00,,,0.00,,2017-04-28 12:26:00,